Dewpoint
69 68 67 67 68 67 67 68 68 69 70 70 70 71 71 69 70 70 70 70 70 68
68 68 68 67 68 69 69 68 68 69 70 70 71 71 70 69 69 69 68 69 70 69
67 67 68 68 68 69 68 69 69 69 70 71 71 71 70 70 70 69 69 70 70 69
68 67 67 68 69 68 69 68 70 71 70 70 71 72 70 69 69 69 68 69 69 68
68 68 67 67 68 69 69 69 69 70 70 70 71 71 70 69 70 69 68 68 67 68
69 68 68 67 67 69 69 70 69 69 69 69 70 70 70 70 69 69 69 68 68 66
70 70 70 69 69 69 69 69 68 69 69 68 67 67 68 70 69 68 69 69 69 68
67 70 70 70 69 68 68 69 69 68 68 68 68 66 65 66 69 69 68 69 70 70
69 69 69 69 69 68 67 67 68 68 67 67 68 66 66 67 68 69 69 69 69 70
67 68 68 68 69 69 68 67 67 66 67 68 68 64 64 67 69 69 69 69 69 69
67 65 66 68 68 68 68 68 66 66 66 67 68 65 64 65 68 69 69 69 69 69
67 67 66 66 66 66 64 64 64 64 64 65 66 61 61 64 67 67 67 68 69 69
64 65 66 65 64 64 65 66 66 66 65 65 64 60 60 62 66 66 67 66 66 61
63 62 62 64 65 64 66 64 63 61 61 61 61 59 58 60 65 66 66 67 64 63
Lifted_Index
-2 -2 -3 -2 -2 -3 -3 -3 -3 -4 -4 -4 -4 -4 -5 -4 -4 -4 -4 -4 -4 -4
-2 -2 -2 -2 -2 -2 -3 -3 -4 -4 -4 -4 -4 -4 -4 -4 -4 -4 -3 -3 -4 -4
-2 -2 -2 -2 -2 -2 -3 -3 -4 -4 -4 -4 -4 -4 -4 -4 -4 -4 -3 -3 -3 -4
-2 -2 -2 -2 -3 -2 -2 -3 -3 -4 -4 -4 -4 -4 -4 -4 -3 -3 -3 -3 -3 -3
-3 -3 -2 -2 -3 -3 -2 -3 -3 -3 -4 -4 -4 -4 -4 -3 -3 -3 -3 -3 -3 -2
-3 -3 -3 -3 -3 -3 -3 -3 -3 -3 -3 -3 -4 -4 -4 -4 -3 -3 -3 -3 -2 -2
-3 -3 -3 -3 -3 -3 -3 -3 -3 -3 -3 -3 -3 -3 -3 -3 -3 -3 -3 -3 -3 -3
-3 -3 -3 -3 -3 -3 -3 -2 -2 -3 -3 -3 -3 -3 -3 -3 -3 -3 -3 -3 -3 -3
-3 -3 -3 -3 -3 -3 -2 -2 -2 -3 -3 -3 -3 -2 -2 -2 -2 -2 -3 -3 -3 -3
-3 -3 -3 -3 -3 -3 -2 -2 -2 -2 -3 -3 -3 -2 -2 -2 -2 -2 -3 -3 -3 -3
-3 -3 -3 -3 -2 -2 -2 -2 -2 -2 -2 -2 -2 -2 -2 -2 -2 -3 -3 -3 -3 -3
-2 -2 -2 -2 -2 -2 -2 -2 -2 -1 -1 -1 -1 -1 -2 -2 -3 -3 -3 -3 -3 -3
-1 -1 -1 -1 -1 -1 -1 -1 -1 -0 -0 0 0 -0 -1 -2 -2 -3 -3 -3 -3 -3
-0 -0 -0 -1 -1 -1 -0 -0 0 0 1 1 1 0 -1 -1 -2 -2 -2 -2 -2 -2